Weather in Dolinovka

Russia / Stavropol Krai     44°36′25″N   43°22′55″E
temp.,
°C
wind,
m/s
gust,
m/s
humid.,
%
clouds,
%
prec.,
mm/h
press.,
hPa
HPBL,
m
23 april, fri
fri2300:00+10wsw2395100 0.9 1023104
03:00+9w2394100 2.1 1023113
06:00+9w389374 0.0 1024258
09:00+14wnw56631 0.0 10241032
12:00+17wnw45445 0.0 10231838
15:00+18wnw45405 0.0 10222193
18:00+16n33554 0.0 102167
21:00+11ne226344 0.0 102115
24 april, sat
sat2400:00+10ese2268100 0.0 102031
03:00+10se1167100 0.0 101913
06:00+10sse2371100 0.0 101963
09:00+14w3363100 0.0 1019533
12:00+17nw2356100 0.0 10191020
15:00+17nne2250100 0.0 10191314
18:00+16s226143 0.0 101941
21:00+14nw1164100 0.0 102010
25 april, sun
sun2500:00+12n4881100 0.0 1021322
03:00+11n2585100 0.1 1022318
06:00+10nne4590100 0.8 1022406
09:00+10ne3483100 0.8 1022513
12:00+10ene4583100 0.0 1021553
15:00+13ene5875100 0.0 1018944
18:00+13ene5976100 0.0 1017545
21:00+11ene61178100 0.0 1017506
26 april, mon
mon2600:00+10e5982100 0.0 1016404
03:00+8e3790100 0.0 1015205
06:00+8e2592100 0.0 1016225
09:00+11ese4577100 0.0 1015678
12:00+14se2364100 0.0 10141073
15:00+13ene2271100 0.5 1013525
18:00+12nnw2382100 1.3 1013115
21:00+10n2395100 4.9 1015180
27 april, tue
tue2700:00+10nnw3494100 0.1 1015202
03:00+9n3694100 0.1 1016378
06:00+8n4793100 1.4 1018471
09:00+8nnw3490100 2.1 1020358
12:00+8nw1184100 0.1 1020359
15:00+9ssw1182100 0.1 1019322
18:00+10sse1285100 0.0 1020156
21:00+9s2390100 0.0 102084